Wetterdaten: Dienstag, 20.07.2004
Datum Zeit Temp. A Sch. Temp. A Son. Feuchte A. Luftdruck Regen Wind Richtung Richtung Sonnenschein Helligkeit Taupunkt Windchill
20.07.2004 00:00 14,5 C 15,4 C 84 % 1018 hPa 0,0 l/m 1,1 m/s (0 Bft) O-NO22.5 65 0,00 min 0 lux 11,8 C 14,5 C
20.07.2004 00:05 14,6 C 15,4 C 83 % 1018 hPa 0,0 l/m 0,8 m/s (0 Bft) O22.5 80 0,00 min 0 lux 11,7 C 14,6 C
20.07.2004 00:10 14,7 C 15,4 C 83 % 1018 hPa 0,0 l/m 0,2 m/s (0 Bft) O-SO 110 0,00 min 0 lux 11,8 C 14,7 C
20.07.2004 00:15 14,5 C 15,3 C 83 % 1018 hPa 0,0 l/m 0,0 m/s (0 Bft) O-SO22.5 115 0,00 min 0 lux 11,6 C 14,5 C
20.07.2004 00:20 14,5 C 15,3 C 83 % 1018 hPa 0,0 l/m 0,0 m/s (0 Bft) SO 125 0,00 min 0 lux 11,6 C 14,5 C
20.07.2004 00:25 14,5 C 15,3 C 83 % 1018 hPa 0,0 l/m 0,0 m/s (0 Bft) SO 125 0,00 min 0 lux 11,6 C 14,5 C
20.07.2004 00:30 14,6 C 15,2 C 84 % 1018 hPa 0,0 l/m 0,0 m/s (0 Bft) O 100 0,00 min 0 lux 11,9 C 14,6 C
20.07.2004 00:35 14,5 C 15,3 C 83 % 1018 hPa 0,0 l/m 0,0 m/s (0 Bft) O 100 0,00 min 0 lux 11,6 C 14,5 C
20.07.2004 00:40 14,6 C 15,2 C 83 % 1018 hPa 0,0 l/m 0,0 m/s (0 Bft) O 100 0,00 min 0 lux 11,7 C 14,6 C
20.07.2004 00:45 14,6 C 15,2 C 83 % 1018 hPa 0,0 l/m 1,5 m/s (1 Bft) O-SO22.5 110 0,00 min 0 lux 11,7 C 14,6 C
20.07.2004 00:50 14,5 C 15,2 C 83 % 1018 hPa 0,0 l/m 0,3 m/s (0 Bft) O-SO 110 0,00 min 0 lux 11,6 C 14,5 C
20.07.2004 00:55 14,5 C 15,2 C 83 % 1018 hPa 0,0 l/m 0,0 m/s (0 Bft) O 100 0,00 min 0 lux 11,6 C 14,5 C
20.07.2004 01:00 15,0 C 15,1 C 81 % 1018 hPa 0,0 l/m 0,3 m/s (0 Bft) O22.5 80 0,00 min 0 lux 11,8 C 15,0 C
20.07.2004 01:05 15,0 C 15,1 C 79 % 1017 hPa 0,0 l/m 1,1 m/s (1 Bft) O22.5 80 0,00 min 0 lux 11,4 C 15,0 C
20.07.2004 01:10 15,0 C 15,1 C 79 % 1017 hPa 0,0 l/m 0,1 m/s (0 Bft) O22.5 95 0,00 min 0 lux 11,4 C 15,0 C
20.07.2004 01:15 15,4 C 15,1 C 77 % 1017 hPa 0,0 l/m 2,6 m/s (1 Bft) O22.5 100 0,00 min 0 lux 11,4 C 13,9 C
20.07.2004 01:20 15,5 C 15,1 C 76 % 1017 hPa 0,0 l/m 1,5 m/s (1 Bft) O22.5 95 0,00 min 0 lux 11,3 C 15,5 C
20.07.2004 01:25 15,6 C 15,1 C 75 % 1017 hPa 0,0 l/m 1,1 m/s (1 Bft) O22.5 90 0,00 min 0 lux 11,2 C 15,6 C
20.07.2004 01:30 15,7 C 15,2 C 75 % 1017 hPa 0,0 l/m 1,7 m/s (1 Bft) O22.5 85 0,00 min 0 lux 11,3 C 15,7 C
20.07.2004 01:35 15,8 C 15,2 C 74 % 1017 hPa 0,0 l/m 1,8 m/s (1 Bft) O45 90 0,00 min 0 lux 11,2 C 15,8 C
20.07.2004 01:40 15,5 C 15,2 C 75 % 1017 hPa 0,0 l/m 0,0 m/s (0 Bft) O 90 0,00 min 0 lux 11,1 C 15,5 C
20.07.2004 01:45 15,4 C 15,3 C 76 % 1017 hPa 0,0 l/m 1,8 m/s (1 Bft) O22.5 90 0,00 min 0 lux 11,2 C 15,3 C
20.07.2004 01:50 15,1 C 15,4 C 77 % 1017 hPa 0,0 l/m 0,0 m/s (0 Bft) SO 130 0,00 min 0 lux 11,1 C 15,1 C
20.07.2004 01:55 14,9 C 15,4 C 80 % 1017 hPa 0,0 l/m 0,0 m/s (0 Bft) SO 130 0,00 min 0 lux 11,5 C 14,9 C
20.07.2004 02:00 14,9 C 15,4 C 80 % 1017 hPa 0,0 l/m 0,0 m/s (0 Bft) SO 130 0,00 min 0 lux 11,5 C 14,9 C
20.07.2004 02:05 14,6 C 15,3 C 82 % 1017 hPa 0,0 l/m 0,0 m/s (0 Bft) S67.5 175 0,00 min 0 lux 11,6 C 14,6 C
20.07.2004 02:10 14,5 C 15,3 C 82 % 1017 hPa 0,0 l/m 0,0 m/s (0 Bft) W-SW 250 0,00 min 0 lux 11,5 C 14,5 C
20.07.2004 02:15 14,2 C 15,2 C 83 % 1017 hPa 0,0 l/m 0,0 m/s (0 Bft) W-SW 250 0,00 min 0 lux 11,4 C 14,2 C
20.07.2004 02:20 14,1 C 15,2 C 84 % 1017 hPa 0,0 l/m 0,0 m/s (0 Bft) SW22.5 230 0,00 min 0 lux 11,4 C 14,1 C
20.07.2004 02:25 14,2 C 15,1 C 85 % 1017 hPa 0,0 l/m 0,0 m/s (0 Bft) SW 225 0,00 min 0 lux 11,7 C 14,2 C
20.07.2004 02:30 14,2 C 15,1 C 85 % 1017 hPa 0,0 l/m 0,0 m/s (0 Bft) O 80 0,00 min 0 lux 11,7 C 14,2 C
20.07.2004 02:35 14,2 C 15,1 C 85 % 1017 hPa 0,0 l/m 0,0 m/s (0 Bft) O 80 0,00 min 0 lux 11,7 C 14,2 C
20.07.2004 02:40 14,3 C 15,1 C 85 % 1017 hPa 0,0 l/m 0,0 m/s (0 Bft) O 80 0,00 min 0 lux 11,8 C 14,3 C
20.07.2004 02:45 14,4 C 15,1 C 85 % 1017 hPa 0,0 l/m 0,0 m/s (0 Bft) O 80 0,00 min 0 lux 11,9 C 14,4 C
20.07.2004 02:50 14,4 C 15,1 C 85 % 1017 hPa 0,0 l/m 0,0 m/s (0 Bft) O 80 0,00 min 0 lux 11,9 C 14,4 C
20.07.2004 02:55 14,4 C 15,1 C 85 % 1017 hPa 0,0 l/m 0,0 m/s (0 Bft) O 80 0,00 min 0 lux 11,9 C 14,4 C
20.07.2004 03:00 14,4 C 14,9 C 84 % 1017 hPa 0,0 l/m 0,0 m/s (0 Bft) O 80 0,00 min 0 lux 11,7 C 14,4 C
20.07.2004 03:05 14,4 C 14,9 C 84 % 1017 hPa 0,0 l/m 0,0 m/s (0 Bft) O-SO 110 0,00 min 0 lux 11,7 C 14,4 C
20.07.2004 03:10 14,3 C 14,8 C 84 % 1016 hPa 0,0 l/m 0,1 m/s (0 Bft) O22.5 95 0,00 min 0 lux 11,6 C 14,3 C
20.07.2004 03:15 14,3 C 14,8 C 83 % 1016 hPa 0,0 l/m 0,0 m/s (0 Bft) O-NO22.5 75 0,00 min 0 lux 11,5 C 14,3 C
20.07.2004 03:20 14,3 C 14,7 C 83 % 1017 hPa 0,0 l/m 0,0 m/s (0 Bft) O-SO22.5 105 0,00 min 0 lux 11,5 C 14,3 C
20.07.2004 03:25 14,4 C 14,8 C 84 % 1017 hPa 0,0 l/m 0,0 m/s (0 Bft) O-SO 115 0,00 min 0 lux 11,7 C 14,4 C
20.07.2004 03:30 14,2 C 14,8 C 84 % 1017 hPa 0,0 l/m 0,0 m/s (0 Bft) O-SO 115 0,00 min 0 lux 11,5 C 14,2 C
20.07.2004 03:35 14,3 C 14,8 C 84 % 1017 hPa 0,0 l/m 0,1 m/s (0 Bft) S-SO67.5 160 0,00 min 0 lux 11,6 C 14,3 C
20.07.2004 03:40 14,3 C 14,8 C 85 % 1016 hPa 0,0 l/m 0,1 m/s (0 Bft) W-SW22.5 250 0,00 min 0 lux 11,8 C 14,3 C
20.07.2004 03:45 14,2 C 14,7 C 85 % 1016 hPa 0,0 l/m 0,1 m/s (0 Bft) SW22.5 225 0,00 min 0 lux 11,7 C 14,2 C
20.07.2004 03:50 14,0 C 14,7 C 85 % 1016 hPa 0,0 l/m 0,1 m/s (0 Bft) SW22.5 225 0,00 min 0 lux 11,5 C 14,0 C
20.07.2004 03:55 14,0 C 14,6 C 86 % 1016 hPa 0,0 l/m 0,0 m/s (0 Bft) SW 230 0,00 min 0 lux 11,7 C 14,0 C
20.07.2004 04:00 14,0 C 14,6 C 86 % 1016 hPa 0,0 l/m 0,0 m/s (0 Bft) SW 230 0,00 min 0 lux 11,7 C 14,0 C
20.07.2004 04:05 14,0 C 14,6 C 86 % 1016 hPa 0,0 l/m 0,0 m/s (0 Bft) SW 230 0,00 min 0 lux 11,7 C 14,0 C
20.07.2004 04:10 13,9 C 14,6 C 87 % 1016 hPa 0,0 l/m 0,0 m/s (0 Bft) SW 230 0,00 min 0 lux 11,8 C 13,9 C
20.07.2004 04:15 13,9 C 14,6 C 88 % 1016 hPa 0,0 l/m 0,0 m/s (0 Bft) SW 230 0,00 min 0 lux 11,9 C 13,9 C
20.07.2004 04:20 13,9 C 14,6 C 88 % 1016 hPa 0,0 l/m 0,0 m/s (0 Bft) SW 230 0,00 min 0 lux 11,9 C 13,9 C
20.07.2004 04:25 13,9 C 14,6 C 88 % 1016 hPa 0,0 l/m 0,0 m/s (0 Bft) SW 230 0,00 min 0 lux 11,9 C 13,9 C
20.07.2004 04:30 13,9 C 14,6 C 88 % 1016 hPa 0,0 l/m 0,0 m/s (0 Bft) S-SW45 200 0,00 min 0 lux 11,9 C 13,9 C
20.07.2004 04:35 13,9 C 14,6 C 88 % 1016 hPa 0,0 l/m 0,0 m/s (0 Bft) SO 130 0,00 min 0 lux 11,9 C 13,9 C
20.07.2004 04:40 13,9 C 14,5 C 88 % 1016 hPa 0,0 l/m 0,0 m/s (0 Bft) SO 130 0,00 min 0 lux 11,9 C 13,9 C
20.07.2004 04:45 13,9 C 14,5 C 88 % 1016 hPa 0,0 l/m 0,0 m/s (0 Bft) SO22.5 145 0,00 min 0 lux 11,9 C 13,9 C
20.07.2004 04:50 13,8 C 14,5 C 88 % 1016 hPa 0,0 l/m 0,0 m/s (0 Bft) S-SO 160 0,00 min 0 lux 11,8 C 13,8 C
20.07.2004 04:55 13,8 C 14,5 C 88 % 1016 hPa 0,0 l/m 0,0 m/s (0 Bft) S-SO 160 0,00 min 0 lux 11,8 C 13,8 C
20.07.2004 05:00 13,8 C 14,5 C 88 % 1016 hPa 0,0 l/m 0,0 m/s (0 Bft) O45 80 0,00 min 0 lux 11,8 C 13,8 C
20.07.2004 05:05 14,1 C 14,5 C 88 % 1016 hPa 0,0 l/m 1,3 m/s (1 Bft) O22.5 95 0,00 min 0 lux 12,1 C 14,1 C
20.07.2004 05:10 14,2 C 14,5 C 87 % 1016 hPa 0,0 l/m 0,0 m/s (0 Bft) O-SO22.5 105 0,00 min 0 lux 12,1 C 14,2 C
20.07.2004 05:15 14,0 C 14,5 C 86 % 1016 hPa 0,0 l/m 0,0 m/s (0 Bft) O-SO 120 0,00 min 0 lux 11,7 C 14,0 C
20.07.2004 05:20 14,0 C 14,4 C 86 % 1016 hPa 0,0 l/m 0,0 m/s (0 Bft) O-SO 120 0,00 min 41 lux 11,7 C 14,0 C
20.07.2004 05:25 13,9 C 14,5 C 87 % 1016 hPa 0,0 l/m 0,0 m/s (0 Bft) O-SO 120 0,00 min 48 lux 11,8 C 13,9 C
20.07.2004 05:30 13,9 C 14,4 C 87 % 1016 hPa 0,0 l/m 0,2 m/s (0 Bft) SW22.5 225 0,00 min 53 lux 11,8 C 13,9 C
20.07.2004 05:35 14,0 C 14,5 C 87 % 1016 hPa 0,0 l/m 0,0 m/s (0 Bft) SW 235 0,00 min 79 lux 11,9 C 14,0 C
20.07.2004 05:40 14,1 C 14,5 C 87 % 1016 hPa 0,0 l/m 0,1 m/s (0 Bft) W-SW22.5 245 0,00 min 182 lux 12,0 C 14,1 C
20.07.2004 05:45 14,2 C 14,5 C 87 % 1015 hPa 0,0 l/m 0,2 m/s (0 Bft) O22.5 80 0,00 min 372 lux 12,1 C 14,2 C
20.07.2004 05:50 14,2 C 14,5 C 87 % 1015 hPa 0,0 l/m 0,0 m/s (0 Bft) O45 100 0,00 min 871 lux 12,1 C 14,2 C
20.07.2004 05:55 14,4 C 14,5 C 87 % 1015 hPa 0,0 l/m 2,4 m/s (1 Bft) O22.5 95 0,00 min 1,76 klux 12,3 C 13,2 C
20.07.2004 06:00 14,5 C 14,5 C 86 % 1015 hPa 0,0 l/m 0,1 m/s (0 Bft) O45 95 0,00 min 2,46 klux 12,2 C 14,5 C
20.07.2004 06:05 14,5 C 14,6 C 85 % 1015 hPa 0,0 l/m 0,2 m/s (0 Bft) O67.5 100 0,00 min 2,92 klux 12,0 C 14,5 C
20.07.2004 06:10 14,7 C 14,7 C 85 % 1015 hPa 0,0 l/m 0,0 m/s (0 Bft) O 100 0,00 min 2,64 klux 12,2 C 14,7 C
20.07.2004 06:15 15,0 C 14,7 C 84 % 1015 hPa 0,0 l/m 1,2 m/s (1 Bft) O-SO22.5 115 0,00 min 2,44 klux 12,3 C 15,0 C
20.07.2004 06:20 15,5 C 14,8 C 82 % 1015 hPa 0,0 l/m 2,1 m/s (1 Bft) O-SO45 115 0,00 min 2,51 klux 12,4 C 14,9 C
20.07.2004 06:25 15,6 C 15,0 C 81 % 1015 hPa 0,0 l/m 2,2 m/s (1 Bft) O-SO45 110 0,00 min 2,89 klux 12,3 C 14,8 C
20.07.2004 06:30 15,8 C 15,1 C 80 % 1015 hPa 0,0 l/m 2,6 m/s (1 Bft) O-SO22.5 115 0,00 min 4,19 klux 12,4 C 14,3 C
20.07.2004 06:35 16,0 C 15,3 C 78 % 1015 hPa 0,0 l/m 1,9 m/s (1 Bft) O45 100 0,00 min 5,21 klux 12,2 C 15,7 C
20.07.2004 06:40 16,2 C 15,4 C 78 % 1015 hPa 0,0 l/m 1,3 m/s (1 Bft) O45 95 0,00 min 6,09 klux 12,4 C 16,2 C
20.07.2004 06:45 16,4 C 15,5 C 77 % 1015 hPa 0,0 l/m 1,8 m/s (1 Bft) O-SO22.5 105 0,00 min 7,11 klux 12,4 C 16,4 C
20.07.2004 06:50 16,6 C 15,7 C 77 % 1015 hPa 0,0 l/m 1,8 m/s (1 Bft) O-SO22.5 110 0,00 min 7,34 klux 12,5 C 16,6 C
20.07.2004 06:55 16,8 C 15,8 C 77 % 1015 hPa 0,0 l/m 2,3 m/s (1 Bft) O22.5 95 0,00 min 6,45 klux 12,7 C 15,9 C
20.07.2004 07:00 16,9 C 16,0 C 76 % 1015 hPa 0,0 l/m 1,4 m/s (1 Bft) O-SO22.5 110 0,00 min 6,12 klux 12,6 C 16,9 C
20.07.2004 07:05 16,8 C 16,1 C 77 % 1015 hPa 0,0 l/m 0,0 m/s (0 Bft) O-SO 105 0,00 min 5,80 klux 12,7 C 16,8 C
20.07.2004 07:10 16,8 C 16,2 C 77 % 1015 hPa 0,0 l/m 0,1 m/s (0 Bft) O-SO 105 0,00 min 4,77 klux 12,7 C 16,8 C
20.07.2004 07:15 16,7 C 16,3 C 78 % 1015 hPa 0,0 l/m 0,0 m/s (0 Bft) O 80 0,00 min 5,34 klux 12,8 C 16,7 C
20.07.2004 07:20 16,8 C 16,3 C 78 % 1015 hPa 0,0 l/m 0,0 m/s (0 Bft) O 80 0,00 min 6,55 klux 12,9 C 16,8 C
20.07.2004 07:25 16,8 C 16,4 C 79 % 1015 hPa 0,0 l/m 0,0 m/s (0 Bft) O 95 0,00 min 6,83 klux 13,1 C 16,8 C
20.07.2004 07:30 17,0 C 16,6 C 77 % 1015 hPa 0,0 l/m 1,4 m/s (1 Bft) O22.5 100 0,00 min 6,76 klux 12,9 C 17,0 C
20.07.2004 07:35 17,1 C 16,7 C 77 % 1015 hPa 0,0 l/m 1,9 m/s (1 Bft) O-SO22.5 115 0,00 min 6,46 klux 13,0 C 16,8 C
20.07.2004 07:40 17,1 C 16,8 C 77 % 1015 hPa 0,0 l/m 1,2 m/s (1 Bft) O22.5 95 0,00 min 5,56 klux 13,0 C 17,1 C
20.07.2004 07:45 17,1 C 16,9 C 77 % 1015 hPa 0,0 l/m 2,3 m/s (1 Bft) O22.5 95 0,00 min 5,37 klux 13,0 C 16,3 C
20.07.2004 07:50 17,2 C 16,9 C 77 % 1015 hPa 0,0 l/m 2,3 m/s (1 Bft) O22.5 95 0,00 min 9,2 klux 13,1 C 16,4 C
20.07.2004 07:55 17,2 C 17,0 C 77 % 1015 hPa 0,0 l/m 3,1 m/s (1 Bft) O22.5 90 0,00 min 10,7 klux 13,1 C 15,1 C
20.07.2004 08:00 17,3 C 17,0 C 78 % 1015 hPa 0,0 l/m 3,2 m/s (1 Bft) O22.5 90 0,00 min 10,6 klux 13,4 C 15,1 C
20.07.2004 08:05 17,3 C 17,2 C 78 % 1015 hPa 0,0 l/m 3,0 m/s (1 Bft) O-SO45 110 0,00 min 10,4 klux 13,4 C 15,4 C
20.07.2004 08:10 17,4 C 17,3 C 77 % 1014 hPa 0,0 l/m 4,0 m/s (1 Bft) O-SO22.5 105 0,00 min 11,0 klux 13,3 C 14,2 C
20.07.2004 08:15 17,5 C 17,4 C 78 % 1014 hPa 0,0 l/m 1,8 m/s (1 Bft) O22.5 95 0,00 min 11,3 klux 13,6 C 17,5 C
20.07.2004 08:20 17,5 C 17,5 C 78 % 1014 hPa 0,0 l/m 3,2 m/s (1 Bft) O-SO22.5 105 0,00 min 12,1 klux 13,6 C 15,3 C
20.07.2004 08:25 17,5 C 17,5 C 78 % 1014 hPa 0,0 l/m 3,2 m/s (1 Bft) O22.5 100 0,00 min 10,4 klux 13,6 C 15,3 C
20.07.2004 08:30 17,5 C 17,5 C 78 % 1014 hPa 0,0 l/m 3,3 m/s (1 Bft) O-SO45 105 0,00 min 9,00 klux 13,6 C 15,2 C
20.07.2004 08:35 17,5 C 17,6 C 78 % 1014 hPa 0,0 l/m 4,7 m/s (1 Bft) O-SO22.5 105 0,00 min 9,6 klux 13,6 C 13,7 C
20.07.2004 08:40 17,6 C 17,6 C 78 % 1014 hPa 0,0 l/m 4,0 m/s (1 Bft) O-SO45 105 0,00 min 9,1 klux 13,7 C 14,5 C
20.07.2004 08:45 17,5 C 17,6 C 78 % 1014 hPa 0,0 l/m 4,8 m/s (1 Bft) O45 100 0,00 min 4,64 klux 13,6 C 13,6 C
20.07.2004 08:50 17,5 C 17,7 C 78 % 1014 hPa 0,0 l/m 3,9 m/s (1 Bft) O-SO45 115 0,00 min 11,5 klux 13,6 C 14,5 C
20.07.2004 08:55 17,6 C 17,8 C 78 % 1014 hPa 0,0 l/m 3,2 m/s (1 Bft) O-SO22.5 110 0,00 min 20,8 klux 13,7 C 15,4 C
20.07.2004 09:00 18,1 C 17,9 C 77 % 1014 hPa 0,0 l/m 3,3 m/s (1 Bft) SO45 125 0,00 min 23,9 klux 14,0 C 15,8 C
20.07.2004 09:05 18,1 C 18,1 C 75 % 1014 hPa 0,0 l/m 3,0 m/s (1 Bft) O-SO45 110 0,00 min 24,0 klux 13,6 C 16,3 C
20.07.2004 09:10 18,1 C 18,2 C 75 % 1014 hPa 0,0 l/m 3,8 m/s (1 Bft) O-SO45 115 0,00 min 20,1 klux 13,6 C 15,3 C
20.07.2004 09:15 18,1 C 18,4 C 75 % 1014 hPa 0,0 l/m 3,1 m/s (1 Bft) O-SO45 115 0,00 min 22,7 klux 13,6 C 16,1 C
20.07.2004 09:20 18,3 C 18,5 C 75 % 1015 hPa 0,0 l/m 3,0 m/s (1 Bft) O45 100 0,00 min 25,3 klux 13,8 C 16,5 C
20.07.2004 09:25 18,4 C 18,6 C 75 % 1015 hPa 0,0 l/m 3,0 m/s (1 Bft) O22.5 100 0,00 min 25,2 klux 13,9 C 16,6 C
20.07.2004 09:30 18,6 C 18,7 C 75 % 1015 hPa 0,0 l/m 2,9 m/s (1 Bft) O-SO22.5 105 0,00 min 20,2 klux 14,1 C 16,9 C
20.07.2004 09:35 18,2 C 18,8 C 76 % 1015 hPa 0,0 l/m 3,1 m/s (1 Bft) O45 95 0,00 min 16,1 klux 13,9 C 16,2 C
20.07.2004 09:40 18,2 C 18,8 C 76 % 1015 hPa 0,0 l/m 3,4 m/s (1 Bft) O22.5 95 0,00 min 16,2 klux 13,9 C 15,9 C
20.07.2004 09:45 17,9 C 18,8 C 78 % 1015 hPa 0,0 l/m 3,7 m/s (1 Bft) O45 95 0,00 min 18,5 klux 14,0 C 15,2 C
20.07.2004 09:50 18,1 C 18,8 C 77 % 1015 hPa 0,0 l/m 2,4 m/s (1 Bft) O-SO45 105 0,00 min 19,6 klux 14,0 C 17,1 C
20.07.2004 09:55 18,4 C 18,9 C 78 % 1015 hPa 0,0 l/m 1,8 m/s (1 Bft) O-SO45 105 0,00 min 18,4 klux 14,5 C 18,4 C
20.07.2004 10:00 18,3 C 18,9 C 78 % 1015 hPa 0,0 l/m 2,3 m/s (1 Bft) O-SO22.5 110 0,00 min 17,8 klux 14,4 C 17,4 C
20.07.2004 10:05 18,3 C 19,0 C 79 % 1015 hPa 0,0 l/m 2,1 m/s (1 Bft) O-NO45 75 0,00 min 22,0 klux 14,6 C 17,8 C
20.07.2004 10:10 18,7 C 19,0 C 80 % 1015 hPa 0,0 l/m 2,0 m/s (1 Bft) O45 85 0,00 min 25,6 klux 15,2 C 18,4 C
20.07.2004 10:15 18,4 C 19,2 C 78 % 1014 hPa 0,0 l/m 3,2 m/s (1 Bft) O22.5 90 0,00 min 27,4 klux 14,5 C 16,4 C
20.07.2004 10:20 18,8 C 19,3 C 79 % 1014 hPa 0,0 l/m 2,7 m/s (1 Bft) O22.5 80 0,00 min 32,6 klux 15,1 C 17,5 C
20.07.2004 10:25 19,1 C 19,4 C 78 % 1014 hPa 0,0 l/m 2,9 m/s (1 Bft) O45 95 0,00 min 36,2 klux 15,2 C 17,5 C
20.07.2004 10:30 19,1 C 19,7 C 77 % 1014 hPa 0,0 l/m 3,3 m/s (1 Bft) O-SO22.5 105 0,00 min 34,2 klux 15,0 C 17,0 C
20.07.2004 10:35 19,3 C 19,8 C 77 % 1014 hPa 0,0 l/m 3,6 m/s (1 Bft) O45 95 0,00 min 31,5 klux 15,2 C 17,0 C
20.07.2004 10:40 19,3 C 19,9 C 77 % 1014 hPa 0,0 l/m 3,2 m/s (1 Bft) O22.5 90 0,00 min 22,9 klux 15,2 C 17,4 C
20.07.2004 10:45 19,3 C 19,9 C 77 % 1014 hPa 0,0 l/m 4,0 m/s (1 Bft) O-SO22.5 105 0,00 min 17,1 klux 15,2 C 16,6 C
20.07.2004 10:50 18,9 C 19,8 C 79 % 1014 hPa 0,0 l/m 3,1 m/s (1 Bft) O-SO45 110 0,00 min 14,6 klux 15,2 C 17,0 C
20.07.2004 10:55 18,6 C 19,8 C 80 % 1014 hPa 0,0 l/m 3,2 m/s (1 Bft) O-SO45 115 0,00 min 15,8 klux 15,1 C 16,6 C
20.07.2004 11:00 18,7 C 19,7 C 81 % 1014 hPa 0,0 l/m 3,8 m/s (1 Bft) O45 100 0,00 min 18,5 klux 15,4 C 16,1 C
20.07.2004 11:05 18,8 C 19,8 C 81 % 1014 hPa 0,0 l/m 2,8 m/s (1 Bft) O45 90 0,00 min 25,4 klux 15,5 C 17,2 C
20.07.2004 11:10 19,1 C 20,0 C 81 % 1014 hPa 0,0 l/m 2,3 m/s (1 Bft) O-SO22.5 105 0,00 min 34,1 klux 15,8 C 18,4 C
20.07.2004 11:15 19,6 C 20,1 C 80 % 1014 hPa 0,0 l/m 1,8 m/s (1 Bft) O-SO22.5 105 0,00 min 49,1 klux 16,1 C 19,6 C
20.07.2004 11:20 19,9 C 20,6 C 80 % 1014 hPa 0,0 l/m 2,5 m/s (1 Bft) O-SO45 120 5,00 min 85,0 klux 16,3 C 18,9 C
20.07.2004 11:25 20,1 C 21,1 C 77 % 1014 hPa 0,0 l/m 3,8 m/s (1 Bft) O45 90 0,00 min 45,4 klux 15,9 C 17,7 C
20.07.2004 11:30 19,7 C 21,3 C 78 % 1014 hPa 0,0 l/m 3,5 m/s (1 Bft) O-SO45 110 0,00 min 34,4 klux 15,8 C 17,5 C
20.07.2004 11:35 19,8 C 21,3 C 78 % 1014 hPa 0,0 l/m 3,3 m/s (1 Bft) O-SO22.5 110 0,00 min 35,8 klux 15,8 C 17,9 C
20.07.2004 11:40 20,6 C 21,4 C 76 % 1014 hPa 0,0 l/m 2,0 m/s (1 Bft) O-SO22.5 120 0,00 min 34,4 klux 16,2 C 20,2 C
20.07.2004 11:45 20,7 C 21,4 C 75 % 1014 hPa 0,0 l/m 2,6 m/s (1 Bft) O-SO45 105 0,00 min 32,8 klux 16,1 C 19,6 C
20.07.2004 11:50 20,7 C 21,4 C 75 % 1014 hPa 0,0 l/m 1,1 m/s (0 Bft) O-SO22.5 120 0,00 min 24,2 klux 16,1 C 20,7 C
20.07.2004 11:55 20,5 C 21,4 C 75 % 1014 hPa 0,0 l/m 0,3 m/s (0 Bft) O-SO45 110 0,00 min 25,0 klux 15,9 C 20,5 C
20.07.2004 12:00 20,8 C 21,5 C 74 % 1014 hPa 0,0 l/m 1,3 m/s (1 Bft) O22.5 85 0,00 min 30,0 klux 16,0 C 20,8 C
20.07.2004 12:05 20,8 C 21,5 C 75 % 1014 hPa 0,0 l/m 2,5 m/s (1 Bft) O-SO 110 0,00 min 32,5 klux 16,2 C 19,8 C
20.07.2004 12:10 21,3 C 21,7 C 74 % 1014 hPa 0,0 l/m 0,0 m/s (0 Bft) O-SO 115 0,00 min 40,1 klux 16,5 C 21,3 C
20.07.2004 12:15 21,6 C 22,0 C 72 % 1014 hPa 0,0 l/m 0,6 m/s (0 Bft) SO22.5 125 0,00 min 47,8 klux 16,3 C 21,6 C
20.07.2004 12:20 22,3 C 22,3 C 69 % 1014 hPa 0,0 l/m 2,4 m/s (1 Bft) SO22.5 135 0,00 min 54,8 klux 16,3 C 21,6 C
20.07.2004 12:25 22,0 C 22,4 C 69 % 1014 hPa 0,0 l/m 1,9 m/s (1 Bft) O-SO22.5 120 0,00 min 42,3 klux 16,0 C 21,9 C
20.07.2004 12:30 22,0 C 22,4 C 68 % 1014 hPa 0,0 l/m 0,2 m/s (0 Bft) SO22.5 125 0,00 min 29,9 klux 15,8 C 22,0 C
20.07.2004 12:35 21,7 C 22,4 C 69 % 1014 hPa 0,0 l/m 0,2 m/s (0 Bft) O-SO22.5 120 0,00 min 24,6 klux 15,8 C 21,7 C
20.07.2004 12:40 21,3 C 22,4 C 70 % 1014 hPa 0,0 l/m 0,7 m/s (0 Bft) SO22.5 125 0,00 min 21,7 klux 15,6 C 21,3 C
20.07.2004 12:45 21,5 C 22,4 C 71 % 1014 hPa 0,0 l/m 1,3 m/s (1 Bft) SO22.5 125 0,00 min 31,4 klux 16,0 C 21,5 C
20.07.2004 12:50 21,9 C 22,6 C 70 % 1014 hPa 0,0 l/m 2,3 m/s (1 Bft) O-SO45 115 0,00 min 38,3 klux 16,2 C 21,3 C
20.07.2004 12:55 21,7 C 22,6 C 69 % 1014 hPa 0,0 l/m 2,3 m/s (1 Bft) O-SO45 120 0,00 min 32,2 klux 15,8 C 21,0 C
20.07.2004 13:00 21,6 C 22,5 C 70 % 1014 hPa 0,0 l/m 2,2 m/s (1 Bft) O-SO45 120 0,00 min 22,5 klux 15,9 C 21,1 C
20.07.2004 13:05 21,2 C 22,3 C 70 % 1014 hPa 0,0 l/m 1,2 m/s (1 Bft) O-SO22.5 105 0,00 min 19,8 klux 15,5 C 21,2 C
20.07.2004 13:10 21,2 C 22,1 C 72 % 1014 hPa 0,0 l/m 0,3 m/s (0 Bft) SO45 140 0,00 min 14,0 klux 15,9 C 21,2 C
20.07.2004 13:15 21,1 C 22,1 C 72 % 1014 hPa 0,0 l/m 0,8 m/s (0 Bft) S-SO22.5 150 0,00 min 18,4 klux 15,8 C 21,1 C
20.07.2004 13:20 21,2 C 22,0 C 73 % 1014 hPa 0,0 l/m 0,0 m/s (0 Bft) S-SO 160 0,00 min 15,8 klux 16,2 C 21,2 C
20.07.2004 13:25 20,9 C 21,9 C 74 % 1014 hPa 0,0 l/m 0,9 m/s (0 Bft) SO 145 0,00 min 14,0 klux 16,1 C 20,9 C
20.07.2004 13:30 21,0 C 21,8 C 74 % 1014 hPa 0,0 l/m 0,0 m/s (0 Bft) S-SO22.5 155 0,00 min 19,3 klux 16,2 C 21,0 C
20.07.2004 13:35 21,2 C 21,9 C 75 % 1014 hPa 0,4 l/m 0,0 m/s (0 Bft) S45 185 0,00 min 20,1 klux 16,6 C 21,2 C
20.07.2004 13:40 21,3 C 21,8 C 74 % 1014 hPa 0,0 l/m 0,0 m/s (0 Bft) S 185 0,00 min 18,1 klux 16,5 C 21,3 C
20.07.2004 13:45 21,1 C 21,8 C 74 % 1014 hPa 0,0 l/m 0,1 m/s (0 Bft) W45 270 0,00 min 21,7 klux 16,3 C 21,1 C
20.07.2004 13:50 21,0 C 21,8 C 73 % 1014 hPa 0,0 l/m 0,0 m/s (0 Bft) W22.5 270 0,00 min 32,2 klux 16,0 C 21,0 C
20.07.2004 13:55 21,5 C 22,0 C 73 % 1014 hPa 0,0 l/m 0,0 m/s (0 Bft) W 260 0,00 min 38,5 klux 16,4 C 21,5 C
20.07.2004 14:00 22,0 C 22,4 C 71 % 1014 hPa 0,0 l/m 0,0 m/s (0 Bft) W 260 0,00 min 48,4 klux 16,5 C 22,0 C
20.07.2004 14:05 22,3 C 22,5 C 69 % 1014 hPa 0,0 l/m 0,0 m/s (0 Bft) W 260 0,00 min 42,2 klux 16,3 C 22,3 C
20.07.2004 14:10 22,3 C 22,8 C 68 % 1014 hPa 0,0 l/m 0,2 m/s (0 Bft) W22.5 265 0,00 min 45,4 klux 16,1 C 22,3 C
20.07.2004 14:15 22,2 C 22,8 C 68 % 1014 hPa 0,0 l/m 0,0 m/s (0 Bft) W 270 0,00 min 29,7 klux 16,0 C 22,2 C
20.07.2004 14:20 22,2 C 22,8 C 69 % 1014 hPa 0,0 l/m 0,0 m/s (0 Bft) SW45 220 0,00 min 17,7 klux 16,2 C 22,2 C
20.07.2004 14:25 21,5 C 22,7 C 71 % 1014 hPa 0,0 l/m 0,0 m/s (0 Bft) S-SO 150 0,00 min 18,6 klux 16,0 C 21,5 C
20.07.2004 14:30 21,6 C 22,5 C 73 % 1014 hPa 0,0 l/m 0,0 m/s (0 Bft) O-SO 115 0,00 min 19,4 klux 16,5 C 21,6 C
20.07.2004 14:35 21,6 C 22,5 C 73 % 1014 hPa 0,0 l/m 0,0 m/s (0 Bft) O-SO 115 0,00 min 18,2 klux 16,5 C 21,6 C
20.07.2004 14:40 21,4 C 22,4 C 74 % 1014 hPa 0,0 l/m 0,0 m/s (0 Bft) O-SO 115 0,00 min 19,1 klux 16,6 C 21,4 C
20.07.2004 14:45 21,2 C 22,4 C 75 % 1013 hPa 0,0 l/m 1,2 m/s (1 Bft) O22.5 95 0,00 min 21,0 klux 16,6 C 21,2 C
20.07.2004 14:50 21,4 C 22,3 C 75 % 1013 hPa 0,0 l/m 0,2 m/s (0 Bft) O-SO22.5 120 0,00 min 19,5 klux 16,8 C 21,4 C
20.07.2004 14:55 21,2 C 22,2 C 75 % 1013 hPa 0,0 l/m 0,0 m/s (0 Bft) SO 125 0,00 min 10,7 klux 16,6 C 21,2 C
20.07.2004 15:00 21,2 C 22,1 C 75 % 1014 hPa 0,0 l/m 0,0 m/s (0 Bft) SO 125 0,00 min 10,7 klux 16,6 C 21,2 C
20.07.2004 15:05 20,8 C 22,0 C 77 % 1014 hPa 0,0 l/m 0,8 m/s (0 Bft) O-SO22.5 105 0,00 min 6,84 klux 16,6 C 20,8 C
20.07.2004 15:10 20,7 C 21,8 C 77 % 1014 hPa 0,7 l/m 0,2 m/s (0 Bft) O-SO22.5 105 0,00 min 2,95 klux 16,5 C 20,7 C
20.07.2004 15:15 20,2 C 21,8 C 81 % 1014 hPa 0,7 l/m 2,6 m/s (1 Bft) W-SW67.5 245 0,00 min 1,25 klux 16,8 C 19,1 C
20.07.2004 15:20 19,6 C 21,3 C 84 % 1014 hPa 4,3 l/m 2,5 m/s (1 Bft) W45 260 0,00 min 2,67 klux 16,8 C 18,6 C
20.07.2004 15:25 19,6 C 20,9 C 84 % 1014 hPa 3,6 l/m 0,3 m/s (0 Bft) W67.5 265 0,00 min 1,97 klux 16,8 C 19,6 C
20.07.2004 15:30 19,1 C 20,7 C 85 % 1014 hPa 1,1 l/m 3,4 m/s (1 Bft) W22.5 260 0,00 min 3,60 klux 16,5 C 16,9 C
20.07.2004 15:35 19,4 C 20,5 C 87 % 1014 hPa 0,7 l/m 1,6 m/s (1 Bft) W-SW22.5 250 0,00 min 12,2 klux 17,2 C 19,4 C
20.07.2004 15:40 19,3 C 20,4 C 87 % 1014 hPa 0,0 l/m 2,9 m/s (1 Bft) W-SW22.5 250 0,00 min 30,0 klux 17,1 C 17,7 C
20.07.2004 15:45 19,4 C 20,5 C 87 % 1014 hPa 0,0 l/m 2,6 m/s (1 Bft) W-SW22.5 255 0,00 min 25,1 klux 17,2 C 18,2 C
20.07.2004 15:50 19,6 C 20,5 C 87 % 1014 hPa 0,0 l/m 2,2 m/s (1 Bft) SW22.5 235 0,00 min 30,4 klux 17,4 C 19,0 C
20.07.2004 15:55 20,0 C 20,7 C 85 % 1014 hPa 0,0 l/m 2,2 m/s (1 Bft) W-SW22.5 240 0,00 min 45,1 klux 17,4 C 19,4 C
20.07.2004 16:00 20,8 C 21,2 C 82 % 1014 hPa 0,0 l/m 0,0 m/s (0 Bft) W-SW 250 0,00 min 42,9 klux 17,6 C 20,8 C
20.07.2004 16:05 21,3 C 21,2 C 78 % 1014 hPa 0,0 l/m 0,1 m/s (0 Bft) W-SW22.5 245 0,00 min 41,8 klux 17,3 C 21,3 C
20.07.2004 16:10 20,8 C 21,5 C 79 % 1014 hPa 0,0 l/m 3,4 m/s (1 Bft) SW22.5 230 0,00 min 33,3 klux 17,0 C 18,9 C
20.07.2004 16:15 20,8 C 21,4 C 79 % 1014 hPa 0,0 l/m 2,2 m/s (1 Bft) SW45 230 0,00 min 29,0 klux 17,0 C 20,2 C
20.07.2004 16:20 20,8 C 21,5 C 77 % 1014 hPa 0,0 l/m 1,9 m/s (1 Bft) SW22.5 235 0,00 min 36,5 klux 16,6 C 20,6 C
20.07.2004 16:25 20,6 C 21,6 C 76 % 1014 hPa 0,0 l/m 1,9 m/s (1 Bft) SW22.5 225 0,00 min 41,8 klux 16,2 C 20,4 C
20.07.2004 16:30 20,6 C 21,6 C 76 % 1014 hPa 0,0 l/m 1,6 m/s (1 Bft) W-SW 250 0,00 min 29,1 klux 16,2 C 20,6 C
20.07.2004 16:35 20,8 C 21,7 C 79 % 1014 hPa 0,0 l/m 0,4 m/s (0 Bft) W-SW 255 0,00 min 41,0 klux 17,0 C 20,8 C
20.07.2004 16:40 21,6 C 21,9 C 76 % 1014 hPa 0,0 l/m 0,1 m/s (0 Bft) SW22.5 225 0,00 min 43,6 klux 17,2 C 21,6 C
20.07.2004 16:45 21,6 C 22,1 C 75 % 1014 hPa 0,0 l/m 0,8 m/s (0 Bft) S22.5 170 0,00 min 28,6 klux 17,0 C 21,6 C
20.07.2004 16:50 21,1 C 22,0 C 74 % 1014 hPa 0,0 l/m 3,3 m/s (1 Bft) S-SW67.5 205 0,00 min 24,2 klux 16,3 C 19,3 C
20.07.2004 16:55 21,0 C 22,0 C 77 % 1014 hPa 0,0 l/m 0,7 m/s (0 Bft) S-SW67.5 210 0,00 min 28,5 klux 16,8 C 21,0 C
20.07.2004 17:00 21,5 C 22,2 C 77 % 1014 hPa 0,0 l/m 2,1 m/s (1 Bft) S-SW45 195 0,00 min 41,0 klux 17,3 C 21,1 C
20.07.2004 17:05 21,2 C 22,4 C 76 % 1014 hPa 0,0 l/m 2,9 m/s (1 Bft) S67.5 190 0,00 min 33,6 klux 16,8 C 19,9 C
20.07.2004 17:10 21,6 C 22,5 C 75 % 1014 hPa 0,0 l/m 2,1 m/s (1 Bft) S67.5 170 0,00 min 39,7 klux 17,0 C 21,2 C
20.07.2004 17:15 21,5 C 22,5 C 75 % 1014 hPa 0,0 l/m 4,9 m/s (1 Bft) SW45 215 0,00 min 34,5 klux 16,9 C 18,6 C
20.07.2004 17:20 21,5 C 22,4 C 75 % 1014 hPa 0,0 l/m 3,3 m/s (1 Bft) S-SW67.5 210 0,00 min 23,5 klux 16,9 C 19,8 C
20.07.2004 17:25 21,4 C 22,3 C 77 % 1013 hPa 0,0 l/m 3,2 m/s (1 Bft) SW45 235 0,00 min 22,9 klux 17,2 C 19,8 C
20.07.2004 17:30 21,0 C 22,2 C 78 % 1014 hPa 0,0 l/m 2,4 m/s (1 Bft) SW45 220 0,00 min 17,2 klux 17,0 C 20,2 C
20.07.2004 17:35 21,0 C 22,1 C 77 % 1013 hPa 0,0 l/m 3,2 m/s (1 Bft) SW45 215 0,00 min 25,8 klux 16,8 C 19,3 C
20.07.2004 17:40 21,0 C 22,0 C 78 % 1013 hPa 0,0 l/m 3,2 m/s (1 Bft) S-SW67.5 200 0,00 min 20,0 klux 17,0 C 19,3 C
20.07.2004 17:45 20,8 C 22,0 C 79 % 1013 hPa 0,0 l/m 2,2 m/s (1 Bft) SW67.5 230 0,00 min 18,3 klux 17,0 C 20,2 C
20.07.2004 17:50 21,0 C 22,0 C 77 % 1013 hPa 0,0 l/m 2,5 m/s (1 Bft) W-SW45 250 0,00 min 21,5 klux 16,8 C 20,1 C
20.07.2004 17:55 21,4 C 22,6 C 76 % 1013 hPa 0,0 l/m 3,8 m/s (1 Bft) W-SW45 240 0,00 min 30,1 klux 17,0 C 19,2 C
20.07.2004 18:00 22,3 C 23,4 C 75 % 1013 hPa 0,0 l/m 3,6 m/s (1 Bft) SW67.5 235 5,00 min 76,2 klux 17,6 C 20,5 C
20.07.2004 18:05 22,3 C 24,8 C 72 % 1013 hPa 0,0 l/m 3,2 m/s (1 Bft) SW45 225 5,00 min 62,3 klux 17,0 C 20,8 C
20.07.2004 18:10 22,3 C 26,1 C 72 % 1013 hPa 0,0 l/m 2,8 m/s (1 Bft) SW67.5 220 5,00 min 58,9 klux 17,0 C 21,1 C
20.07.2004 18:15 22,3 C 26,8 C 70 % 1013 hPa 0,0 l/m 3,0 m/s (1 Bft) S-SW22.5 195 5,00 min 57,1 klux 16,6 C 21,0 C
20.07.2004 18:20 22,3 C 27,1 C 70 % 1013 hPa 0,0 l/m 1,7 m/s (1 Bft) S-SW67.5 195 5,00 min 55,2 klux 16,6 C 22,3 C
20.07.2004 18:25 22,3 C 27,6 C 70 % 1013 hPa 0,0 l/m 2,6 m/s (1 Bft) SW45 220 5,00 min 53,6 klux 16,6 C 21,3 C
20.07.2004 18:30 22,5 C 28,3 C 69 % 1013 hPa 0,0 l/m 1,6 m/s (1 Bft) S-SW67.5 210 5,00 min 52,9 klux 16,5 C 22,5 C
20.07.2004 18:35 22,4 C 28,2 C 68 % 1013 hPa 0,0 l/m 3,6 m/s (1 Bft) SW22.5 235 5,00 min 51,3 klux 16,2 C 20,6 C
20.07.2004 18:40 22,5 C 28,0 C 68 % 1013 hPa 0,0 l/m 4,3 m/s (1 Bft) SW67.5 230 0,00 min 20,9 klux 16,3 C 20,2 C
20.07.2004 18:45 21,9 C 26,7 C 68 % 1013 hPa 0,0 l/m 4,9 m/s (1 Bft) SW45 230 0,00 min 19,2 klux 15,7 C 19,1 C
20.07.2004 18:50 21,6 C 25,5 C 70 % 1013 hPa 0,0 l/m 3,1 m/s (1 Bft) W-SW45 255 0,00 min 19,6 klux 15,9 C 20,1 C
20.07.2004 18:55 22,2 C 25,2 C 70 % 1013 hPa 0,0 l/m 2,3 m/s (1 Bft) W-SW22.5 240 5,00 min 48,7 klux 16,5 C 21,6 C
20.07.2004 19:00 22,2 C 25,4 C 70 % 1013 hPa 0,0 l/m 5,1 m/s (1 Bft) SW67.5 225 5,00 min 29,8 klux 16,5 C 19,3 C
20.07.2004 19:05 23,8 C 25,6 C 64 % 1013 hPa 0,0 l/m 4,9 m/s (1 Bft) SW67.5 230 5,00 min 42,7 klux 16,6 C 21,4 C
20.07.2004 19:10 24,0 C 26,0 C 59 % 1013 hPa 0,0 l/m 4,4 m/s (1 Bft) SW45 220 5,00 min 43,4 klux 15,5 C 22,0 C
20.07.2004 19:15 24,0 C 26,3 C 59 % 1013 hPa 0,0 l/m 4,2 m/s (1 Bft) SW22.5 230 5,00 min 38,9 klux 15,5 C 22,1 C
20.07.2004 19:20 24,0 C 26,3 C 58 % 1013 hPa 0,0 l/m 2,9 m/s (1 Bft) SW67.5 225 5,00 min 35,1 klux 15,2 C 22,9 C
20.07.2004 19:25 23,7 C 26,3 C 60 % 1013 hPa 0,0 l/m 6,1 m/s (2 Bft) SW22.5 230 5,00 min 32,5 klux 15,5 C 20,8 C
20.07.2004 19:30 23,7 C 26,0 C 61 % 1013 hPa 0,0 l/m 4,6 m/s (1 Bft) W-SW45 245 5,00 min 31,7 klux 15,7 C 21,5 C
20.07.2004 19:35 23,8 C 25,9 C 60 % 1013 hPa 0,0 l/m 3,7 m/s (1 Bft) W-SW45 250 5,00 min 29,1 klux 15,6 C 22,2 C
20.07.2004 19:40 22,7 C 25,7 C 62 % 1013 hPa 0,0 l/m 3,3 m/s (1 Bft) W-SW22.5 245 5,00 min 26,6 klux 15,0 C 21,2 C
20.07.2004 19:45 22,1 C 25,3 C 64 % 1013 hPa 0,0 l/m 2,6 m/s (1 Bft) W-SW22.5 255 5,00 min 19,2 klux 15,0 C 21,2 C
20.07.2004 19:50 22,9 C 25,0 C 63 % 1013 hPa 0,0 l/m 2,4 m/s (1 Bft) W-SW22.5 255 5,00 min 19,7 klux 15,5 C 22,2 C
20.07.2004 19:55 22,2 C 24,7 C 68 % 1013 hPa 0,0 l/m 0,2 m/s (0 Bft) W 260 0,00 min 9,3 klux 16,0 C 22,2 C
20.07.2004 20:00 21,3 C 24,1 C 69 % 1013 hPa 0,0 l/m 0,0 m/s (0 Bft) W 260 0,00 min 6,82 klux 15,4 C 21,3 C
20.07.2004 20:05 21,2 C 23,6 C 70 % 1013 hPa 0,0 l/m 1,3 m/s (1 Bft) W-SW22.5 250 0,00 min 4,00 klux 15,5 C 21,2 C
20.07.2004 20:10 20,9 C 23,1 C 72 % 1013 hPa 0,0 l/m 0,0 m/s (0 Bft) W-SW 240 0,00 min 2,99 klux 15,7 C 20,9 C
20.07.2004 20:15 20,8 C 23,0 C 74 % 1013 hPa 0,0 l/m 0,0 m/s (0 Bft) W-SW 240 0,00 min 2,84 klux 16,0 C 20,8 C
20.07.2004 20:20 20,6 C 22,7 C 74 % 1013 hPa 0,0 l/m 0,0 m/s (0 Bft) W-SW 240 0,00 min 2,93 klux 15,8 C 20,6 C
20.07.2004 20:25 20,8 C 22,5 C 75 % 1013 hPa 0,0 l/m 0,0 m/s (0 Bft) W-SW 240 0,00 min 6,05 klux 16,2 C 20,8 C
20.07.2004 20:30 20,7 C 22,2 C 76 % 1013 hPa 0,0 l/m 0,0 m/s (0 Bft) W-SW 240 0,00 min 5,28 klux 16,3 C 20,7 C
20.07.2004 20:35 20,5 C 22,2 C 78 % 1013 hPa 0,0 l/m 0,0 m/s (0 Bft) W-SW 240 0,00 min 5,04 klux 16,5 C 20,5 C
20.07.2004 20:40 20,3 C 21,9 C 78 % 1013 hPa 0,0 l/m 0,0 m/s (0 Bft) W-SW 240 0,00 min 4,93 klux 16,3 C 20,3 C
20.07.2004 20:45 20,2 C 21,7 C 78 % 1013 hPa 0,0 l/m 0,0 m/s (0 Bft) W-SW 240 0,00 min 4,70 klux 16,2 C 20,2 C
20.07.2004 20:50 20,0 C 21,5 C 79 % 1014 hPa 0,0 l/m 0,0 m/s (0 Bft) S-SW45 210 0,00 min 3,13 klux 16,2 C 20,0 C
20.07.2004 20:55 20,0 C 21,3 C 80 % 1014 hPa 0,0 l/m 0,0 m/s (0 Bft) O-SO45 120 0,00 min 1,07 klux 16,4 C 20,0 C
20.07.2004 21:00 19,7 C 21,2 C 83 % 1014 hPa 0,0 l/m 0,0 m/s (0 Bft) O 80 0,00 min 713 lux 16,7 C 19,7 C
20.07.2004 21:05 19,7 C 21,1 C 83 % 1014 hPa 0,0 l/m 0,0 m/s (0 Bft) O 80 0,00 min 952 lux 16,7 C 19,7 C
20.07.2004 21:10 19,5 C 20,9 C 84 % 1014 hPa 0,0 l/m 0,0 m/s (0 Bft) O 80 0,00 min 1,12 klux 16,7 C 19,5 C
20.07.2004 21:15 19,3 C 20,8 C 84 % 1014 hPa 0,0 l/m 0,0 m/s (0 Bft) O 80 0,00 min 1,02 klux 16,5 C 19,3 C
20.07.2004 21:20 19,1 C 20,5 C 84 % 1014 hPa 0,0 l/m 0,0 m/s (0 Bft) O 80 0,00 min 906 lux 16,3 C 19,1 C
20.07.2004 21:25 18,8 C 20,4 C 86 % 1014 hPa 0,0 l/m 1,1 m/s (1 Bft) O 80 0,00 min 528 lux 16,4 C 18,8 C
20.07.2004 21:30 18,5 C 20,1 C 87 % 1014 hPa 0,0 l/m 0,8 m/s (0 Bft) O-NO 65 0,00 min 470 lux 16,3 C 18,5 C
20.07.2004 21:35 18,5 C 20,0 C 87 % 1014 hPa 0,0 l/m 0,0 m/s (0 Bft) O-NO 65 0,00 min 320 lux 16,3 C 18,5 C
20.07.2004 21:40 18,3 C 19,8 C 87 % 1014 hPa 0,0 l/m 0,0 m/s (0 Bft) O-NO 65 0,00 min 211 lux 16,1 C 18,3 C
20.07.2004 21:45 17,9 C 19,5 C 88 % 1014 hPa 0,0 l/m 0,0 m/s (0 Bft) O-NO 65 0,00 min 122 lux 15,9 C 17,9 C
20.07.2004 21:50 18,0 C 19,3 C 88 % 1014 hPa 0,0 l/m 0,0 m/s (0 Bft) O-NO 65 0,00 min 66 lux 16,0 C 18,0 C
20.07.2004 21:55 17,8 C 19,1 C 89 % 1014 hPa 0,0 l/m 0,0 m/s (0 Bft) O-NO 65 0,00 min 37 lux 16,0 C 17,8 C
20.07.2004 22:00 17,6 C 19,1 C 89 % 1014 hPa 0,0 l/m 0,0 m/s (0 Bft) O-NO 65 0,00 min 19 lux 15,8 C 17,6 C
20.07.2004 22:05 17,3 C 18,8 C 89 % 1014 hPa 0,0 l/m 0,0 m/s (0 Bft) O-NO 65 0,00 min 11 lux 15,5 C 17,3 C
20.07.2004 22:10 17,2 C 18,6 C 90 % 1014 hPa 0,0 l/m 0,0 m/s (0 Bft) O-NO 65 0,00 min 5 lux 15,5 C 17,2 C
20.07.2004 22:15 17,1 C 18,5 C 90 % 1014 hPa 0,0 l/m 0,0 m/s (0 Bft) O-NO 65 0,00 min 2 lux 15,4 C 17,1 C
20.07.2004 22:20 17,2 C 18,3 C 90 % 1014 hPa 0,0 l/m 0,0 m/s (0 Bft) O-NO 65 0,00 min 1 lux 15,5 C 17,2 C
20.07.2004 22:25 17,0 C 18,1 C 90 % 1015 hPa 0,0 l/m 0,0 m/s (0 Bft) O-NO 65 0,00 min 0 lux 15,3 C 17,0 C
20.07.2004 22:30 16,9 C 18,0 C 91 % 1015 hPa 0,0 l/m 0,0 m/s (0 Bft) O-NO 65 0,00 min 0 lux 15,4 C 16,9 C
20.07.2004 22:35 16,9 C 18,0 C 91 % 1015 hPa 0,0 l/m 0,0 m/s (0 Bft) O-NO 65 0,00 min 0 lux 15,4 C 16,9 C
20.07.2004 22:40 16,9 C 17,9 C 91 % 1015 hPa 0,0 l/m 0,0 m/s (0 Bft) O-NO 65 0,00 min 0 lux 15,4 C 16,9 C
20.07.2004 22:45 16,7 C 17,7 C 91 % 1015 hPa 0,0 l/m 0,0 m/s (0 Bft) O-NO 65 0,00 min 0 lux 15,2 C 16,7 C
20.07.2004 22:50 16,7 C 17,7 C 91 % 1015 hPa 0,0 l/m 0,0 m/s (0 Bft) O-NO 65 0,00 min 0 lux 15,2 C 16,7 C
20.07.2004 22:55 16,6 C 17,6 C 91 % 1015 hPa 0,0 l/m 0,0 m/s (0 Bft) O-NO 65 0,00 min 0 lux 15,1 C 16,6 C
20.07.2004 23:00 16,5 C 17,5 C 92 % 1015 hPa 0,0 l/m 0,0 m/s (0 Bft) O-NO 65 0,00 min 0 lux 15,2 C 16,5 C
20.07.2004 23:05 16,5 C 17,3 C 92 % 1015 hPa 0,0 l/m 0,0 m/s (0 Bft) O-NO 65 0,00 min 0 lux 15,2 C 16,5 C
20.07.2004 23:10 16,8 C 17,3 C 92 % 1015 hPa 0,0 l/m 0,0 m/s (0 Bft) SW 215 0,00 min 0 lux 15,5 C 16,8 C
20.07.2004 23:15 16,6 C 17,2 C 92 % 1015 hPa 0,0 l/m 0,6 m/s (0 Bft) W22.5 270 0,00 min 0 lux 15,3 C 16,6 C
20.07.2004 23:20 16,8 C 17,1 C 92 % 1015 hPa 0,0 l/m 0,2 m/s (0 Bft) W-SW22.5 250 0,00 min 0 lux 15,5 C 16,8 C
20.07.2004 23:25 16,7 C 17,1 C 93 % 1015 hPa 0,0 l/m 1,2 m/s (1 Bft) W-SW22.5 245 0,00 min 0 lux 15,6 C 16,7 C
20.07.2004 23:30 16,6 C 17,1 C 93 % 1015 hPa 0,0 l/m 1,2 m/s (1 Bft) W-SW 240 0,00 min 0 lux 15,5 C 16,6 C
20.07.2004 23:35 16,6 C 17,0 C 93 % 1015 hPa 0,0 l/m 0,0 m/s (0 Bft) W-SW 245 0,00 min 0 lux 15,5 C 16,6 C
20.07.2004 23:40 16,4 C 16,9 C 93 % 1015 hPa 0,0 l/m 1,0 m/s (0 Bft) W-SW 250 0,00 min 0 lux 15,3 C 16,4 C
20.07.2004 23:45 16,2 C 16,9 C 93 % 1015 hPa 0,0 l/m 0,0 m/s (0 Bft) W-SW 240 0,00 min 0 lux 15,1 C 16,2 C
20.07.2004 23:50 16,2 C 16,8 C 93 % 1015 hPa 0,0 l/m 1,1 m/s (0 Bft) SW 230 0,00 min 0 lux 15,1 C 16,2 C
20.07.2004 23:55 16,1 C 16,8 C 93 % 1015 hPa 0,0 l/m 0,1 m/s (0 Bft) SW 230 0,00 min 0 lux 15,0 C 16,1 C
_ Min-Zeit 04:50 05:20 19:20 14:45 - 00:15 - - - - 01:40 05:55
Minimum _ 13,8 C 14,4 C 58 % 1013 hPa - 0,0 m/s (0 Bft) - - - - 11,1 C 13,2 C
_ Max-Zeit 19:10 18:30 23:25 00:00 15:20 19:25 - - 11:20 11:20 18:00 19:20
Maximum _ 24,0 C 28,3 C 93 % 1018 hPa 4,3 l/m 6,1 m/s
SW (4 Bft)
- - 5,00 min 85,0 klux 17,6 C 22,9 C
Durchschnitt _ 18,3 C 19,1 C 79 % 1015 hPa #11,5 l/m 1,3 m/s (1 Bft) O-SO - #1:45 h 14,4 klux 14,5 C 17,7 C